User: anonymous   Login
Location: Unspecified
(0.0000°N, 0.0000°E)
Time: 21:37:17
(UTC+00:00)
Language:

Altair - Orbit

View from above orbital plane
View from above orbital plane
View from above satellite
View from above satellite

Ground track
Ground track

The orbit data is extracted from the following two-line orbital elements,

1 00050U 60009B   15153.18659424 -.00000096  00000-0 -11157-3 0  9999
2 00050 047.2325 078.9636 0113674 235.6800 123.3188 12.20092139445744
Epoch (UTC): 02 June 2015 04:28:41
Eccentricity: 0.0113674
inclination: 47.2325°
perigee height: 1501 km
apogee height: 1683 km
right ascension of ascending node: 78.9636°
argument of perigee: 235.6800°
revolutions per day: 12.20092139
mean anomaly at epoch: 123.3188°
orbit number at epoch: 44574

The dashed part of the orbit path shows where the satellite is in the earth's shadow,  

DLR